CEB412 RPLL-RPVI

Flight info

Callsign CEB412
Flight time 0h 48m
Altitude 33000
Route VERDE2R VERDE W24 TAPER B472 LAMBO LAMBO2N
Aircraft A339/H-SADE1E2E3GHIJ3J5M1P2RWXY/LB2D1

Departure

Time 2026-04-22 11:53
Airport Ninoy Aquino International Airport (RPLL)

Arrival

Time 2026-04-22 12:41
Airport Iloilo International Airport (RPVI)
Time Latitude Longitude Altitude Speed Heading
2026-04-22 11:27 14.51561 121.01608 90 ft 0 kts 46°
2026-04-22 11:35 14.51556 121.01602 90 ft 2 kts 46°
2026-04-22 11:35 14.51546 121.01591 90 ft 2 kts 46°
2026-04-22 11:35 14.51535 121.01580 90 ft 2 kts 47°
2026-04-22 11:36 14.51527 121.01567 90 ft 2 kts 68°
2026-04-22 11:36 14.51522 121.01553 90 ft 2 kts 82°
2026-04-22 11:36 14.51522 121.01537 90 ft 2 kts 98°
2026-04-22 11:36 14.51525 121.01523 90 ft 2 kts 113°
2026-04-22 11:37 14.51533 121.01509 90 ft 2 kts 129°
2026-04-22 11:37 14.51537 121.01505 90 ft 0 kts 135°
2026-04-22 11:37 14.51521 121.01521 90 ft 3 kts 134°
2026-04-22 11:37 14.51513 121.01530 90 ft 1 kts 135°
2026-04-22 11:38 14.51497 121.01547 90 ft 1 kts 134°
2026-04-22 11:38 14.51496 121.01548 90 ft 0 kts 134°
2026-04-22 11:42 14.51490 121.01554 90 ft 2 kts 134°
2026-04-22 11:42 14.51473 121.01572 90 ft 4 kts 135°
2026-04-22 11:42 14.51445 121.01601 90 ft 6 kts 135°
2026-04-22 11:43 14.51407 121.01640 90 ft 8 kts 135°
2026-04-22 11:43 14.51361 121.01688 90 ft 10 kts 134°
2026-04-22 11:43 14.51307 121.01743 90 ft 11 kts 135°
2026-04-22 11:43 14.51248 121.01804 90 ft 11 kts 135°
2026-04-22 11:44 14.51199 121.01856 90 ft 9 kts 134°
2026-04-22 11:44 14.51164 121.01892 90 ft 7 kts 135°
2026-04-22 11:44 14.51125 121.01932 90 ft 7 kts 135°
2026-04-22 11:44 14.51093 121.01965 90 ft 6 kts 135°
2026-04-22 11:45 14.51065 121.01987 90 ft 3 kts 169°
2026-04-22 11:45 14.51037 121.01972 90 ft 5 kts 224°
2026-04-22 11:45 14.51020 121.01948 90 ft 0 kts 239°
2026-04-22 11:45 14.51012 121.01933 90 ft 4 kts 239°
2026-04-22 11:46 14.50987 121.01890 90 ft 9 kts 240°
2026-04-22 11:46 14.50952 121.01827 90 ft 10 kts 240°
2026-04-22 11:46 14.50912 121.01755 90 ft 12 kts 240°
2026-04-22 11:46 14.50868 121.01676 90 ft 12 kts 240°
2026-04-22 11:47 14.50825 121.01598 90 ft 12 kts 240°
2026-04-22 11:47 14.50780 121.01517 90 ft 12 kts 240°
2026-04-22 11:47 14.50733 121.01434 90 ft 14 kts 240°
2026-04-22 11:47 14.50683 121.01344 90 ft 15 kts 240°
2026-04-22 11:48 14.50629 121.01247 90 ft 15 kts 240°
2026-04-22 11:48 14.50573 121.01145 90 ft 16 kts 240°
2026-04-22 11:48 14.50515 121.01040 90 ft 17 kts 240°
2026-04-22 11:48 14.50454 121.00931 90 ft 17 kts 239°
2026-04-22 11:49 14.50391 121.00818 90 ft 18 kts 241°
2026-04-22 11:49 14.50331 121.00710 90 ft 17 kts 240°
2026-04-22 11:49 14.50271 121.00603 90 ft 17 kts 240°
2026-04-22 11:49 14.50211 121.00494 90 ft 17 kts 240°
2026-04-22 11:50 14.50148 121.00382 90 ft 18 kts 240°
2026-04-22 11:50 14.50087 121.00272 90 ft 15 kts 240°
2026-04-22 11:50 14.50032 121.00172 90 ft 16 kts 240°
2026-04-22 11:50 14.49974 121.00067 90 ft 17 kts 240°
2026-04-22 11:51 14.49923 120.99981 90 ft 9 kts 227°
2026-04-22 11:51 14.49864 120.99972 90 ft 8 kts 158°
2026-04-22 11:51 14.49812 121.00011 90 ft 8 kts 123°
2026-04-22 11:51 14.49817 121.00072 90 ft 9 kts 64°
2026-04-22 11:52 14.49840 121.00114 90 ft 6 kts 61°
2026-04-22 11:52 14.49946 121.00307 90 ft 66 kts 59°
2026-04-22 11:52 14.50289 121.00922 90 ft 128 kts 60°
2026-04-22 11:52 14.50812 121.01876 276 ft 163 kts 62°
2026-04-22 11:53 14.51368 121.02875 886 ft 163 kts 62°
2026-04-22 11:53 14.51925 121.03883 1531 ft 164 kts 61°
2026-04-22 11:53 14.52491 121.04901 2090 ft 171 kts 62°
2026-04-22 11:53 14.53103 121.06000 2528 ft 184 kts 62°
2026-04-22 11:54 14.53777 121.07213 2916 ft 201 kts 63°
2026-04-22 11:54 14.54498 121.08516 3280 ft 219 kts 62°
2026-04-22 11:54 14.55284 121.09942 3665 ft 238 kts 62°
2026-04-22 11:54 14.56092 121.11515 4089 ft 256 kts 71°
2026-04-22 11:55 14.56272 121.13388 4564 ft 272 kts 100°
2026-04-22 11:55 14.55531 121.15183 5322 ft 277 kts 127°
2026-04-22 11:55 14.54073 121.16478 6092 ft 282 kts 153°
2026-04-22 11:55 14.52156 121.16934 6791 ft 289 kts 181°
2026-04-22 11:56 14.50156 121.16689 7549 ft 292 kts 187°
2026-04-22 11:56 14.48157 121.16393 8303 ft 295 kts 186°
2026-04-22 11:56 14.46094 121.16092 9043 ft 299 kts 186°
2026-04-22 11:56 14.44017 121.15798 9834 ft 302 kts 186°
2026-04-22 11:57 14.41974 121.15517 10442 ft 306 kts 186°
2026-04-22 11:57 14.39800 121.15221 10815 ft 323 kts 186°
2026-04-22 11:57 14.37479 121.14907 11141 ft 341 kts 186°
2026-04-22 11:57 14.35099 121.14584 11589 ft 353 kts 186°
2026-04-22 11:58 14.32609 121.14247 12273 ft 357 kts 187°
2026-04-22 11:58 14.30136 121.13913 13015 ft 359 kts 187°
2026-04-22 11:58 14.27658 121.13577 13696 ft 362 kts 187°
2026-04-22 11:58 14.25143 121.13236 14327 ft 365 kts 187°
2026-04-22 11:59 14.22599 121.12891 14967 ft 369 kts 187°
2026-04-22 11:59 14.20038 121.12544 15598 ft 372 kts 187°
2026-04-22 11:59 14.17459 121.12196 16199 ft 375 kts 187°
2026-04-22 11:59 14.14850 121.11844 16790 ft 378 kts 187°
2026-04-22 12:00 14.12258 121.11494 17357 ft 381 kts 187°
2026-04-22 12:00 14.09610 121.11138 17924 ft 384 kts 187°
2026-04-22 12:00 14.06926 121.10778 18493 ft 387 kts 187°
2026-04-22 12:00 14.04250 121.10420 19042 ft 390 kts 187°
2026-04-22 12:01 14.01536 121.10055 19594 ft 393 kts 187°
2026-04-22 12:01 13.98807 121.09688 20130 ft 396 kts 188°
2026-04-22 12:01 13.96047 121.09317 20639 ft 399 kts 188°
2026-04-22 12:01 13.93269 121.08943 21136 ft 403 kts 188°
2026-04-22 12:02 13.90494 121.08569 21612 ft 406 kts 189°
2026-04-22 12:02 13.87742 121.08199 22091 ft 408 kts 189°
2026-04-22 12:02 13.84904 121.07817 22601 ft 411 kts 189°
2026-04-22 12:02 13.82041 121.07430 23107 ft 413 kts 189°
2026-04-22 12:03 13.79202 121.07046 23604 ft 415 kts 189°
2026-04-22 12:03 13.76325 121.06657 24101 ft 418 kts 189°
2026-04-22 12:03 13.73429 121.06268 24591 ft 421 kts 189°
2026-04-22 12:03 13.70506 121.05876 25101 ft 422 kts 188°
2026-04-22 12:04 13.67578 121.05483 25598 ft 425 kts 188°
2026-04-22 12:04 13.64646 121.05090 26072 ft 427 kts 188°
2026-04-22 12:04 13.61672 121.04691 26542 ft 429 kts 188°
2026-04-22 12:04 13.58690 121.04291 26992 ft 432 kts 188°
2026-04-22 12:05 13.55729 121.03894 27427 ft 434 kts 188°
2026-04-22 12:05 13.52667 121.03721 27838 ft 439 kts 176°
2026-04-22 12:05 13.49673 121.04287 28268 ft 443 kts 163°
2026-04-22 12:05 13.46837 121.05578 28706 ft 446 kts 150°
2026-04-22 12:06 13.44256 121.07340 29140 ft 449 kts 146°
2026-04-22 12:06 13.41702 121.09181 29530 ft 452 kts 145°
2026-04-22 12:06 13.39089 121.11061 29913 ft 455 kts 146°
2026-04-22 12:06 13.36489 121.12909 30291 ft 458 kts 146°
2026-04-22 12:07 13.33857 121.14760 30663 ft 461 kts 146°
2026-04-22 12:07 13.31170 121.16640 31026 ft 464 kts 146°
2026-04-22 12:07 13.28505 121.18504 31383 ft 467 kts 146°
2026-04-22 12:07 13.25818 121.20383 31743 ft 470 kts 146°
2026-04-22 12:08 13.23128 121.22267 32153 ft 471 kts 146°
2026-04-22 12:08 13.20426 121.24161 32585 ft 472 kts 146°
2026-04-22 12:08 13.17700 121.26073 32896 ft 474 kts 146°
2026-04-22 12:08 13.14974 121.27982 32915 ft 475 kts 146°
2026-04-22 12:09 13.09473 121.31835 32924 ft 475 kts 146°
2026-04-22 12:09 13.04009 121.35660 32930 ft 476 kts 146°
2026-04-22 12:10 12.98548 121.39481 32931 ft 476 kts 146°
2026-04-22 12:10 12.93963 121.42689 32926 ft 475 kts 146°
2026-04-22 12:11 12.82185 121.50924 32903 ft 475 kts 146°
2026-04-22 12:12 12.76743 121.54726 32894 ft 474 kts 146°
2026-04-22 12:12 12.71324 121.58508 32888 ft 474 kts 146°
2026-04-22 12:13 12.65883 121.62303 32884 ft 474 kts 146°
2026-04-22 12:13 12.60398 121.66128 32652 ft 476 kts 146°
2026-04-22 12:14 12.57672 121.68027 32062 ft 478 kts 146°
2026-04-22 12:14 12.54918 121.69948 31426 ft 478 kts 146°
2026-04-22 12:14 12.52175 121.71861 30786 ft 478 kts 146°
2026-04-22 12:14 12.49422 121.73782 30339 ft 472 kts 146°
2026-04-22 12:15 12.46727 121.75661 29945 ft 466 kts 146°
2026-04-22 12:15 12.44061 121.77520 29542 ft 460 kts 146°
2026-04-22 12:15 12.41434 121.79350 29146 ft 454 kts 146°
2026-04-22 12:15 12.38822 121.81112 28754 ft 448 kts 149°
2026-04-22 12:16 12.36130 121.82703 28377 ft 443 kts 152°
2026-04-22 12:16 12.33386 121.84101 28020 ft 437 kts 156°
2026-04-22 12:16 12.30607 121.85343 27660 ft 431 kts 157°
2026-04-22 12:16 12.27886 121.86530 27271 ft 427 kts 157°
2026-04-22 12:17 12.25138 121.87723 26878 ft 423 kts 157°
2026-04-22 12:17 12.22424 121.88904 26488 ft 420 kts 157°
2026-04-22 12:17 12.19774 121.90058 26094 ft 417 kts 157°
2026-04-22 12:17 12.17087 121.91229 25696 ft 414 kts 157°
2026-04-22 12:18 12.14471 121.92370 25304 ft 411 kts 157°
2026-04-22 12:18 12.11830 121.93522 24909 ft 408 kts 157°
2026-04-22 12:18 12.09219 121.94660 24518 ft 406 kts 157°
2026-04-22 12:18 12.06638 121.95785 24129 ft 403 kts 157°
2026-04-22 12:19 12.04057 121.96910 23743 ft 401 kts 156°
2026-04-22 12:19 12.01501 121.98024 23354 ft 399 kts 156°
2026-04-22 12:19 11.98928 121.99145 22964 ft 397 kts 156°
2026-04-22 12:19 11.96373 122.00257 22580 ft 396 kts 156°
2026-04-22 12:20 11.93851 122.01355 22192 ft 394 kts 156°
2026-04-22 12:20 11.91316 122.02460 21827 ft 392 kts 156°
2026-04-22 12:20 11.88825 122.03546 21471 ft 391 kts 156°
2026-04-22 12:20 11.86364 122.04619 21119 ft 388 kts 156°
2026-04-22 12:21 11.84005 122.05645 20775 ft 386 kts 156°
2026-04-22 12:21 11.81590 122.06696 20416 ft 385 kts 156°
2026-04-22 12:21 11.79356 122.07668 20085 ft 383 kts 156°
2026-04-22 12:21 11.76889 122.08742 19716 ft 381 kts 156°
2026-04-22 12:22 11.74435 122.09809 19347 ft 379 kts 156°
2026-04-22 12:22 11.72007 122.10864 18983 ft 377 kts 156°
2026-04-22 12:22 11.69590 122.11916 18620 ft 375 kts 156°
2026-04-22 12:22 11.67214 122.12948 18263 ft 372 kts 156°
2026-04-22 12:23 11.64811 122.13992 17899 ft 370 kts 156°
2026-04-22 12:23 11.62473 122.15009 17543 ft 368 kts 156°
2026-04-22 12:23 11.60114 122.16036 17183 ft 366 kts 156°
2026-04-22 12:23 11.57778 122.17051 16818 ft 364 kts 157°
2026-04-22 12:24 11.55438 122.18068 16449 ft 363 kts 157°
2026-04-22 12:24 11.53119 122.19074 16085 ft 361 kts 157°
2026-04-22 12:24 11.50792 122.20084 15714 ft 360 kts 157°
2026-04-22 12:24 11.48501 122.21079 15349 ft 358 kts 157°
2026-04-22 12:25 11.46205 122.22076 14986 ft 356 kts 157°
2026-04-22 12:25 11.43925 122.23066 14624 ft 355 kts 157°
2026-04-22 12:25 11.41650 122.24052 14262 ft 354 kts 158°
2026-04-22 12:25 11.39393 122.25033 13902 ft 352 kts 158°
2026-04-22 12:26 11.37149 122.26006 13539 ft 351 kts 158°
2026-04-22 12:26 11.34891 122.26984 13172 ft 349 kts 158°
2026-04-22 12:26 11.32662 122.27951 12811 ft 348 kts 158°
2026-04-22 12:26 11.30428 122.28919 12448 ft 347 kts 158°
2026-04-22 12:27 11.28208 122.29880 12087 ft 345 kts 158°
2026-04-22 12:27 11.25998 122.30837 11723 ft 344 kts 158°
2026-04-22 12:27 11.23789 122.31795 11358 ft 342 kts 158°
2026-04-22 12:27 11.21611 122.32739 11155 ft 335 kts 157°
2026-04-22 12:28 11.19512 122.33649 11103 ft 323 kts 157°
2026-04-22 12:28 11.17473 122.34523 11054 ft 311 kts 159°
2026-04-22 12:28 11.15434 122.35203 10986 ft 301 kts 166°
2026-04-22 12:28 11.13398 122.35669 10689 ft 300 kts 169°
2026-04-22 12:29 11.11364 122.36078 10389 ft 299 kts 169°
2026-04-22 12:29 11.09309 122.36484 10100 ft 298 kts 169°
2026-04-22 12:29 11.07277 122.36887 9814 ft 297 kts 169°
2026-04-22 12:29 11.05248 122.37292 9526 ft 296 kts 168°
2026-04-22 12:30 11.01202 122.38103 8956 ft 294 kts 168°
2026-04-22 12:30 10.99191 122.38507 8667 ft 293 kts 168°
2026-04-22 12:30 10.97185 122.38911 8375 ft 292 kts 168°
2026-04-22 12:31 10.95202 122.39307 8117 ft 290 kts 169°
2026-04-22 12:31 10.93201 122.39421 8049 ft 281 kts 184°
2026-04-22 12:31 10.91288 122.39069 7759 ft 282 kts 193°
2026-04-22 12:31 10.89383 122.38557 7381 ft 276 kts 194°
2026-04-22 12:32 10.87681 122.38074 7029 ft 269 kts 194°
2026-04-22 12:32 10.84142 122.37083 6360 ft 257 kts 194°
2026-04-22 12:32 10.82416 122.36610 6101 ft 256 kts 193°
2026-04-22 12:33 10.80683 122.36138 5820 ft 257 kts 193°
2026-04-22 12:33 10.78936 122.35667 5542 ft 259 kts 193°
2026-04-22 12:33 10.77191 122.35194 5265 ft 260 kts 193°
2026-04-22 12:33 10.75422 122.34715 4988 ft 262 kts 193°
2026-04-22 12:34 10.73647 122.34235 4713 ft 263 kts 193°
2026-04-22 12:34 10.71872 122.33755 4443 ft 264 kts 193°
2026-04-22 12:34 10.70092 122.33273 4228 ft 263 kts 193°
2026-04-22 12:34 10.68315 122.32832 3999 ft 259 kts 185°
2026-04-22 12:35 10.66588 122.33114 3707 ft 252 kts 148°
2026-04-22 12:35 10.65417 122.34354 3479 ft 242 kts 112°
2026-04-22 12:35 10.64874 122.35959 3287 ft 236 kts 106°
2026-04-22 12:35 10.64375 122.37537 3068 ft 234 kts 107°
2026-04-22 12:36 10.63856 122.39091 2838 ft 232 kts 107°
2026-04-22 12:36 10.63576 122.40683 2572 ft 228 kts 79°
2026-04-22 12:36 10.64303 122.42037 2509 ft 218 kts 41°
2026-04-22 12:36 10.65573 122.42818 2522 ft 207 kts 25°
2026-04-22 12:37 10.66879 122.43314 2522 ft 194 kts 21°
2026-04-22 12:37 10.68128 122.43737 2508 ft 180 kts 21°
2026-04-22 12:37 10.69261 122.44131 2491 ft 165 kts 22°
2026-04-22 12:37 10.70333 122.44521 2502 ft 163 kts 22°
2026-04-22 12:38 10.71399 122.44917 2441 ft 160 kts 23°
2026-04-22 12:38 10.72442 122.45307 2211 ft 155 kts 22°
2026-04-22 12:38 10.73433 122.45677 2003 ft 149 kts 23°
2026-04-22 12:38 10.74399 122.46037 1806 ft 143 kts 23°
2026-04-22 12:39 10.75340 122.46388 1626 ft 144 kts 22°
2026-04-22 12:39 10.77228 122.47089 1244 ft 143 kts 22°
2026-04-22 12:39 10.78166 122.47437 1052 ft 143 kts 22°
2026-04-22 12:40 10.79091 122.47781 862 ft 142 kts 22°
2026-04-22 12:40 10.80036 122.48131 673 ft 142 kts 22°
2026-04-22 12:40 10.80956 122.48472 488 ft 141 kts 21°
2026-04-22 12:40 10.81877 122.48807 300 ft 138 kts 21°
2026-04-22 12:41 10.82761 122.49133 188 ft 128 kts 22°
2026-04-22 12:41 10.83407 122.49376 184 ft 56 kts 20°
2026-04-22 12:41 10.83738 122.49499 184 ft 48 kts 20°
2026-04-22 12:41 10.84030 122.49606 184 ft 41 kts 19°
2026-04-22 12:42 10.84229 122.49680 184 ft 17 kts 22°
2026-04-22 12:42 10.84297 122.49728 184 ft 9 kts 34°
2026-04-22 12:42 10.84327 122.49725 184 ft 3 kts 276°
2026-04-22 12:42 10.84300 122.49707 184 ft 6 kts 203°
2026-04-22 12:43 10.84244 122.49686 184 ft 10 kts 200°
2026-04-22 12:43 10.84159 122.49654 184 ft 15 kts 200°
2026-04-22 12:43 10.84049 122.49614 184 ft 18 kts 200°
2026-04-22 12:43 10.83919 122.49566 184 ft 20 kts 200°
2026-04-22 12:44 10.83784 122.49515 184 ft 20 kts 200°
2026-04-22 12:44 10.83656 122.49468 184 ft 13 kts 199°
2026-04-22 12:44 10.83587 122.49453 184 ft 8 kts 160°
2026-04-22 12:44 10.83548 122.49503 184 ft 9 kts 110°
2026-04-22 12:45 10.83524 122.49573 184 ft 11 kts 110°
2026-04-22 12:45 10.83498 122.49641 184 ft 9 kts 115°
2026-04-22 12:45 10.83441 122.49676 184 ft 10 kts 182°
2026-04-22 12:45 10.83365 122.49651 184 ft 12 kts 200°
2026-04-22 12:46 10.83281 122.49619 184 ft 13 kts 199°
2026-04-22 12:46 10.83191 122.49586 184 ft 10 kts 200°
2026-04-22 12:46 10.83144 122.49582 184 ft 6 kts 147°
2026-04-22 12:46 10.83123 122.49620 183 ft 4 kts 109°
2026-04-22 12:47 10.83117 122.49640 183 ft 0 kts 109°